Tracking 18843 objects as of 21-November-2017
HD Live streaming from Space Station
objects crossing your sky now

FENGYUN 1C DEB

Track FENGYUN 1C DEB now!
10-day predictions


NORAD ID: 37921
Int'l Code: 1999-025ENW
Perigee: 861.0 km
Apogee: 984.3 km
Inclination: 99.3 °
Period: 103.3 minutes
Semi major axis: 7293 km
RCS: 0.0041 m2 (small)
Launch date: May 10, 1999
Source: People's Republic of China (PRC)
Launch site: Taiyaun Space Center, China (TSC)

Note: This is SATELLITE DEBRIS
aabbcc
Your satellite tracking list
Your tracking list is empty




NASA's NSSDC Master Catalog

Two Line Element Set (TLE):
1 37921U 99025ENW 17324.26304816  .00000034  00000-0  58659-4 0  9998
2 37921  99.3478 332.9581 0084550 183.9000 176.1511 13.93754998416616
Source of the keplerian elements: AFSPC